This is the latest recevied weather packets stored in our database for station/object N3AVN. If no packets are shown the sender has not sent any weather packets the latest 1 day(s).
| Time | Temp. | Humidity | Pressure | Rain* | Wind** | Luminosity | Snow |
|---|---|---|---|---|---|---|---|
| 1778064383 | 13.89° C | 92% | 1008.5 hPa | 0 mm | - | 44 W/m² | - |
| 1778064080 | 13.89° C | 92% | 1008.5 hPa | 0 mm | - | 22 W/m² | - |
| 1778063777 | 13.89° C | 92% | 1008.5 hPa | 0 mm | - | 15 W/m² | - |
| 1778063474 | 13.89° C | 92% | 1008.7 hPa | 0 mm | - | 16 W/m² | - |
| 1778063172 | 13.33° C | 92% | 1008.5 hPa | 0 mm | - | 16 W/m² | - |
| 1778062566 | 13.33° C | 92% | 1008.2 hPa | 0 mm | - | 21 W/m² | - |
| 1778061961 | 13.33° C | 92% | 1008.3 hPa | 0 mm | - | 12 W/m² | - |
| 1778060751 | 13.89° C | 90% | 1008.4 hPa | 0 mm | - | 0 W/m² | - |
| 1778060449 | 13.89° C | 90% | 1008.1 hPa | 0 mm | - | 0 W/m² | - |
| 1778060147 | 13.89° C | 90% | 1008.1 hPa | 0 mm | - | 0 W/m² | - |
| 1778059844 | 13.89° C | 89% | 1008 hPa | 0 mm | - | 0 W/m² | - |
| 1778059542 | 13.89° C | 89% | 1008.3 hPa | 0 mm | - | 0 W/m² | - |
| 1778059238 | 13.89° C | 89% | 1007.9 hPa | 0 mm | - | 0 W/m² | - |
| 1778058937 | 13.89° C | 89% | 1008.4 hPa | 0 mm | - | 0 W/m² | - |
| 1778057421 | 14.44° C | 88% | 1008.2 hPa | 0 mm | - | 0 W/m² | - |
| 1778057118 | 14.44° C | 87% | 1008.2 hPa | 0 mm | - | 0 W/m² | - |
| 1778056814 | 14.44° C | 87% | 1008.2 hPa | 0 mm | - | 0 W/m² | - |
| 1778056209 | 14.44° C | 86% | 1008.2 hPa | 0 mm | - | 0 W/m² | - |
| 1778055601 | 14.44° C | 86% | 1008.1 hPa | 0 mm | - | 0 W/m² | - |
| 1778054391 | 15° C | 85% | 1008.1 hPa | 0 mm | - | 0 W/m² | - |
| 1778053785 | 15° C | 85% | 1008.2 hPa | 0 mm | - | 0 W/m² | - |
| 1778053482 | 15° C | 85% | 1008.3 hPa | 0 mm | - | 0 W/m² | - |
| 1778052877 | 15° C | 85% | 1008.1 hPa | 0 mm | - | 0 W/m² | - |
| 1778052575 | 15° C | 84% | 1008.1 hPa | 0 mm | - | 0 W/m² | - |
| 1778051667 | 15.56° C | 83% | 1008.1 hPa | 0 mm | - | 0 W/m² | - |
* Rain latest hour (hover to see other rain measurements)
** Current wind speed in m/s (hover to see current wind gust speed)